| time (UTC) | temp F | wind direction | speed MPH | gust MPH | rain 1hr in | rain 24hr in | rain mn in | humidity % | barometer mb |
| 20260510045142 | 72 | 90 | 3.0 | 6.0 | 0.00 | 0.00 | 0.00 | 85 | 1011.6 |
| 20260510044118 | 72 | 135 | 4.0 | 5.0 | 0.00 | 0.00 | 0.00 | 85 | 1011.3 |
| 20260510043142 | 71 | 135 | 1.0 | 2.0 | 0.00 | 0.00 | 0.00 | 83 | 1011.3 |
| 20260510042138 | 71 | 135 | 4.0 | 5.0 | 0.00 | 0.00 | 0.00 | 83 | 1011.3 |
| 20260510041202 | 71 | 0.0 | 0.0 | 0.00 | 0.00 | 0.00 | 83 | 1011.3 | |
| 20260510040118 | 71 | 90 | 1.0 | 1.0 | 0.00 | 0.01 | 0.00 | 82 | 1011.5 |
| 20260510035142 | 71 | 90 | 1.0 | 3.0 | 0.00 | 0.02 | 0.00 | 81 | 1011.5 |
| 20260510034118 | 71 | 90 | 1.0 | 1.0 | 0.00 | 0.02 | 0.00 | 80 | 1011.6 |
| 20260510033142 | 72 | 0.0 | 1.0 | 0.00 | 0.02 | 0.00 | 79 | 1011.5 | |
| 20260510032118 | 72 | 90 | 2.0 | 3.0 | 0.00 | 0.02 | 0.00 | 78 | 1011.6 |
| 20260510031142 | 72 | 90 | 1.0 | 2.0 | 0.00 | 0.02 | 0.00 | 77 | 1011.5 |
| 20260510030138 | 72 | 135 | 2.0 | 3.0 | 0.00 | 0.02 | 0.00 | 76 | 1011.5 |
| 20260510025142 | 73 | 0.0 | 1.0 | 0.00 | 0.02 | 0.00 | 72 | 1011.6 | |
| 20260510024118 | 73 | 0.0 | 1.0 | 0.00 | 0.02 | 0.00 | 72 | 1011.6 | |
| 20260510023142 | 73 | 135 | 1.0 | 2.0 | 0.00 | 0.02 | 0.00 | 71 | 1011.6 |
| 20260510022118 | 73 | 90 | 1.0 | 3.0 | 0.00 | 0.02 | 0.00 | 71 | 1011.5 |
| 20260510021142 | 74 | 90 | 1.0 | 2.0 | 0.00 | 0.02 | 0.00 | 71 | 1011.4 |
| 20260510020118 | 74 | 0.0 | 0.0 | 0.00 | 0.02 | 0.00 | 71 | 1011.3 | |
| 20260510015142 | 74 | 45 | 1.0 | 1.0 | 0.00 | 0.02 | 0.00 | 70 | 1011.1 |
| 20260510014138 | 75 | 0.0 | 0.0 | 0.00 | 0.02 | 0.00 | 68 | 1011.1 | |
| 20260510013142 | 76 | 0.0 | 0.0 | 0.00 | 0.02 | 0.00 | 67 | 1011.1 | |
| 20260510012118 | 76 | 0.0 | 0.0 | 0.00 | 0.02 | 0.00 | 66 | 1010.9 | |
| 20260510011142 | 77 | 0.0 | 0.0 | 0.00 | 0.02 | 0.00 | 64 | 1010.6 | |
| 20260510010118 | 78 | 0.0 | 0.0 | 0.00 | 0.02 | 0.00 | 63 | 1010.8 | |
| 20260510005142 | 79 | 0.0 | 1.0 | 0.00 | 0.02 | 0.00 | 62 | 1010.6 | |
| 20260510004158 | 80 | 0.0 | 1.0 | 0.00 | 0.02 | 0.00 | 61 | 1010.6 | |
| 20260510003142 | 81 | 0.0 | 1.0 | 0.00 | 0.02 | 0.00 | 60 | 1010.4 | |
| 20260510002118 | 82 | 135 | 1.0 | 1.0 | 0.00 | 0.02 | 0.00 | 54 | 1010.5 |
| 20260510001202 | 83 | 135 | 1.0 | 3.0 | 0.00 | 0.02 | 0.00 | 52 | 1010.6 |
| 20260510000118 | 84 | 135 | 1.0 | 2.0 | 0.00 | 0.02 | 0.00 | 50 | 1010.6 |
| 20260509235142 | 85 | 68 | 3.0 | 3.0 | 0.00 | 0.02 | 0.00 | 48 | 1010.8 |
| 20260509234118 | 86 | 45 | 3.0 | 3.0 | 0.00 | 0.02 | 0.00 | 46 | 1010.8 |
| 20260509233202 | 86 | 135 | 1.0 | 2.0 | 0.00 | 0.02 | 0.00 | 47 | 1010.6 |
| 20260509232118 | 86 | 45 | 1.0 | 2.0 | 0.00 | 0.02 | 0.00 | 42 | 1010.7 |
| 20260509231142 | 87 | 90 | 1.0 | 2.0 | 0.00 | 0.02 | 0.00 | 46 | 1010.7 |
| 20260509230118 | 86 | 90 | 2.0 | 3.0 | 0.00 | 0.02 | 0.00 | 44 | 1010.8 |
| 20260509225142 | 86 | 45 | 2.0 | 3.0 | 0.00 | 0.02 | 0.00 | 41 | 1010.8 |
| 20260509224118 | 86 | 23 | 4.0 | 5.0 | 0.00 | 0.02 | 0.00 | 44 | 1010.7 |
| 20260509223202 | 86 | 338 | 3.0 | 4.0 | 0.00 | 0.02 | 0.00 | 45 | 1010.7 |
| 20260509222118 | 86 | 0 | 3.0 | 3.0 | 0.00 | 0.02 | 0.00 | 46 | 1010.4 |
| 20260509221142 | 87 | 45 | 3.0 | 4.0 | 0.00 | 0.02 | 0.00 | 47 | 1010.6 |
| 20260509220118 | 87 | 135 | 3.0 | 4.0 | 0.00 | 0.02 | 0.00 | 50 | 1010.5 |
| 20260509215142 | 86 | 135 | 5.0 | 7.0 | 0.00 | 0.02 | 0.00 | 52 | 1010.6 |
| 20260509214118 | 85 | 45 | 4.0 | 5.0 | 0.00 | 0.02 | 0.00 | 52 | 1010.8 |
| 20260509213142 | 85 | 45 | 4.0 | 5.0 | 0.00 | 0.02 | 0.00 | 51 | 1011.2 |
| 20260509212118 | 86 | 90 | 5.0 | 5.0 | 0.00 | 0.02 | 0.00 | 52 | 1011.1 |
| 20260509211142 | 86 | 90 | 4.0 | 5.0 | 0.00 | 0.02 | 0.00 | 54 | 1011.2 |
| 20260509210118 | 85 | 90 | 3.0 | 5.0 | 0.00 | 0.02 | 0.00 | 56 | 1011.2 |
| 20260509205142 | 85 | 0 | 3.0 | 5.0 | 0.00 | 0.02 | 0.00 | 54 | 1011.4 |
| 20260509204118 | 85 | 135 | 1.0 | 2.0 | 0.00 | 0.02 | 0.00 | 54 | 1011.6 |
| 20260509203202 | 85 | 45 | 4.0 | 5.0 | 0.00 | 0.02 | 0.00 | 53 | 1011.5 |
| 20260509202118 | 85 | 45 | 4.0 | 5.0 | 0.00 | 0.02 | 0.00 | 52 | 1011.7 |
| 20260509201142 | 85 | 45 | 3.0 | 4.0 | 0.00 | 0.02 | 0.00 | 54 | 1011.5 |
| 20260509200118 | 85 | 45 | 3.0 | 5.0 | 0.00 | 0.02 | 0.00 | 56 | 1011.6 |
| 20260509195142 | 85 | 68 | 2.0 | 3.0 | 0.00 | 0.02 | 0.00 | 58 | 1011.7 |
| 20260509194118 | 83 | 0 | 1.0 | 2.0 | 0.00 | 0.02 | 0.00 | 57 | 1011.8 |
| 20260509193142 | 85 | 45 | 2.0 | 3.0 | 0.00 | 0.02 | 0.00 | 53 | 1012.1 |
| 20260509192118 | 84 | 0 | 5.0 | 7.0 | 0.00 | 0.02 | 0.00 | 54 | 1012.0 |
| 20260509191142 | 85 | 0 | 3.0 | 5.0 | 0.00 | 0.02 | 0.00 | 58 | 1012.1 |
| 20260509190118 | 84 | 45 | 3.0 | 5.0 | 0.00 | 0.02 | 0.00 | 57 | 1012.1 |
| 20260509185203 | 84 | 90 | 3.0 | 3.0 | 0.00 | 0.02 | 0.00 | 58 | 1012.3 |
| 20260509184118 | 83 | 45 | 5.0 | 7.0 | 0.00 | 0.02 | 0.00 | 59 | 1012.3 |
| 20260509183142 | 82 | 45 | 3.0 | 5.0 | 0.00 | 0.02 | 0.00 | 61 | 1012.4 |
| 20260509182118 | 81 | 0 | 2.0 | 3.0 | 0.00 | 0.02 | 0.00 | 63 | 1012.3 |
| 20260509181142 | 81 | 45 | 3.0 | 5.0 | 0.00 | 0.02 | 0.00 | 64 | 1012.6 |
| 20260509180118 | 81 | 0.0 | 1.0 | 0.00 | 0.02 | 0.00 | 65 | 1012.6 | |
| 20260509175142 | 82 | 45 | 1.0 | 2.0 | 0.00 | 0.02 | 0.00 | 60 | 1012.6 |
| 20260509174118 | 81 | 45 | 3.0 | 5.0 | 0.00 | 0.02 | 0.00 | 66 | 1012.7 |
| 20260509173142 | 80 | 23 | 1.0 | 1.0 | 0.00 | 0.02 | 0.00 | 69 | 1013.1 |
| 20260509172118 | 79 | 45 | 4.0 | 6.0 | 0.00 | 0.02 | 0.00 | 70 | 1013.1 |
| 20260509171142 | 79 | 0 | 5.0 | 6.0 | 0.00 | 0.02 | 0.00 | 68 | 1013.1 |
| 20260509170118 | 78 | 0 | 3.0 | 5.0 | 0.00 | 0.02 | 0.00 | 70 | 1013.0 |
| 20260509165142 | 79 | 0 | 3.0 | 4.0 | 0.00 | 0.02 | 0.00 | 70 | 1013.1 |
| 20260509164118 | 77 | 45 | 3.0 | 4.0 | 0.00 | 0.02 | 0.00 | 70 | 1013.3 |
| 20260509163142 | 77 | 0 | 1.0 | 2.0 | 0.00 | 0.02 | 0.00 | 71 | 1012.8 |
| 20260509162118 | 77 | 45 | 2.0 | 3.0 | 0.00 | 0.02 | 0.00 | 72 | 1013.1 |
| 20260509161142 | 76 | 0 | 4.0 | 5.0 | 0.00 | 0.02 | 0.00 | 73 | 1013.0 |
| 20260509160138 | 75 | 0 | 1.0 | 2.0 | 0.00 | 0.02 | 0.00 | 74 | 1013.0 |
| 20260509155142 | 75 | 90 | 1.0 | 1.0 | 0.00 | 0.02 | 0.00 | 77 | 1013.0 |
| 20260509154118 | 74 | 0 | 3.0 | 5.0 | 0.00 | 0.02 | 0.00 | 78 | 1012.8 |
| 20260509153142 | 73 | 90 | 1.0 | 2.0 | 0.00 | 0.02 | 0.00 | 80 | 1013.0 |
| 20260509152118 | 73 | 0.0 | 0.0 | 0.00 | 0.02 | 0.00 | 79 | 1013.0 | |
| 20260509151142 | 73 | 0.0 | 1.0 | 0.00 | 0.02 | 0.00 | 80 | 1013.1 | |
| 20260509150118 | 72 | 45 | 1.0 | 1.0 | 0.00 | 0.02 | 0.00 | 83 | 1013.0 |
| 20260509145142 | 72 | 90 | 1.0 | 2.0 | 0.00 | 0.02 | 0.00 | 82 | 1013.2 |
| 20260509144118 | 72 | 0 | 2.0 | 3.0 | 0.00 | 0.02 | 0.00 | 84 | 1012.8 |
| 20260509143142 | 72 | 45 | 1.0 | 3.0 | 0.00 | 0.02 | 0.00 | 86 | 1012.7 |
| 20260509142118 | 72 | 270 | 5.0 | 6.0 | 0.00 | 0.02 | 0.00 | 89 | 1012.7 |
| 20260509141142 | 72 | 293 | 1.0 | 1.0 | 0.00 | 0.02 | 0.00 | 91 | 1012.7 |
| 20260509140138 | 71 | 0.0 | 1.0 | 0.00 | 0.02 | 0.00 | 94 | 1012.6 | |
| 20260509135142 | 71 | 0.0 | 1.0 | 0.00 | 0.02 | 0.00 | 97 | 1012.6 | |
| 20260509134118 | 70 | 0.0 | 1.0 | 0.00 | 0.02 | 0.00 | 99 | 1012.5 | |
| 20260509133202 | 70 | 0.0 | 0.0 | 0.00 | 0.02 | 0.00 | 99 | 1012.5 | |
| 20260509132118 | 69 | 90 | 1.0 | 1.0 | 0.00 | 0.02 | 0.00 | 99 | 1012.3 |
| 20260509131202 | 69 | 45 | 1.0 | 1.0 | 0.00 | 0.02 | 0.00 | 99 | 1012.5 |
| 20260509130118 | 69 | 0 | 1.0 | 3.0 | 0.00 | 0.02 | 0.00 | 99 | 1012.4 |
| 20260509125202 | 69 | 0.0 | 0.0 | 0.00 | 0.02 | 0.00 | 99 | 1012.6 | |
| 20260509124118 | 69 | 0.0 | 0.0 | 0.00 | 0.02 | 0.00 | 99 | 1012.7 | |
| 20260509123142 | 68 | 0.0 | 0.0 | 0.00 | 0.04 | 0.00 | 99 | 1012.6 | |
| 20260509122118 | 68 | 0.0 | 0.0 | 0.00 | 0.04 | 0.00 | 99 | 1012.3 | |
| 20260509121202 | 68 | 0.0 | 0.0 | 0.00 | 0.04 | 0.00 | 98 | 1012.4 | |
| 20260509120118 | 68 | 0.0 | 1.0 | 0.00 | 0.04 | 0.00 | 98 | 1012.3 | |
| 20260509115142 | 68 | 0.0 | 0.0 | 0.00 | 0.04 | 0.00 | 98 | 1011.9 | |
| 20260509114138 | 68 | 0.0 | 1.0 | 0.00 | 0.04 | 0.00 | 98 | 1011.9 | |
| 20260509113142 | 68 | 45 | 1.0 | 1.0 | 0.00 | 0.07 | 0.00 | 98 | 1011.7 |
| 20260509112118 | 68 | 0.0 | 1.0 | 0.00 | 0.15 | 0.00 | 98 | 1011.8 | |
| 20260509111142 | 68 | 90 | 1.0 | 1.0 | 0.00 | 0.21 | 0.00 | 97 | 1011.5 |
| 20260509110118 | 68 | 0.0 | 1.0 | 0.00 | 0.31 | 0.00 | 97 | 1011.3 | |
| 20260509105142 | 68 | 0.0 | 0.0 | 0.00 | 0.50 | 0.00 | 97 | 1011.3 | |
| 20260509104118 | 68 | 225 | 1.0 | 3.0 | 0.00 | 0.59 | 0.00 | 97 | 1011.2 |
| 20260509103142 | 68 | 0.0 | 1.0 | 0.00 | 0.63 | 0.00 | 96 | 1010.9 | |
| 20260509102118 | 68 | 135 | 1.0 | 1.0 | 0.00 | 0.66 | 0.00 | 96 | 1011.0 |
| 20260509101202 | 68 | 135 | 3.0 | 3.0 | 0.00 | 0.66 | 0.00 | 96 | 1011.0 |
| 20260509100118 | 68 | 135 | 2.0 | 3.0 | 0.00 | 0.66 | 0.00 | 96 | 1011.1 |
| 20260509095142 | 68 | 45 | 1.0 | 1.0 | 0.00 | 0.66 | 0.00 | 96 | 1011.2 |
| 20260509094119 | 68 | 45 | 1.0 | 1.0 | 0.00 | 0.66 | 0.00 | 97 | 1011.0 |
| 20260509093202 | 68 | 0 | 2.0 | 3.0 | 0.00 | 0.66 | 0.00 | 97 | 1011.1 |
| 20260509092118 | 68 | 45 | 1.0 | 1.0 | 0.00 | 0.66 | 0.00 | 98 | 1010.6 |
| 20260509091142 | 68 | 45 | 3.0 | 5.0 | 0.00 | 0.66 | 0.00 | 99 | 1010.2 |
| 20260509090118 | 68 | 90 | 3.0 | 6.0 | 0.00 | 0.66 | 0.00 | 99 | 1010.1 |
| 20260509085142 | 68 | 90 | 5.0 | 6.0 | 0.00 | 0.67 | 0.00 | 99 | 1010.3 |
| 20260509084118 | 68 | 135 | 3.0 | 4.0 | 0.00 | 0.67 | 0.00 | 99 | 1010.2 |
| 20260509083142 | 68 | 315 | 4.0 | 5.0 | 0.00 | 0.67 | 0.00 | 99 | 1010.4 |
| 20260509082118 | 67 | 135 | 5.0 | 5.0 | 0.00 | 0.69 | 0.00 | 99 | 1010.9 |
| 20260509081142 | 67 | 315 | 2.0 | 3.0 | 0.00 | 0.77 | 0.00 | 99 | 1011.3 |
| 20260509080138 | 67 | 90 | 1.0 | 2.0 | 0.00 | 0.77 | 0.00 | 99 | 1011.3 |
| 20260509075142 | 67 | 90 | 1.0 | 2.0 | 0.00 | 0.77 | 0.00 | 99 | 1011.9 |
| 20260509074118 | 66 | 0.0 | 1.0 | 0.00 | 0.77 | 0.00 | 99 | 1012.1 | |
| 20260509073142 | 66 | 90 | 1.0 | 2.0 | 0.00 | 0.77 | 0.00 | 99 | 1012.4 |
| 20260509072118 | 66 | 0.0 | 1.0 | 0.00 | 0.77 | 0.00 | 99 | 1012.6 | |
| 20260509071142 | 66 | 90 | 1.0 | 3.0 | 0.00 | 0.77 | 0.00 | 99 | 1012.7 |
| 20260509070138 | 66 | 0 | 2.0 | 3.0 | 0.00 | 0.77 | 0.00 | 98 | 1012.8 |
| 20260509065222 | 66 | 0 | 1.0 | 2.0 | 0.00 | 0.77 | 0.00 | 96 | 1012.6 |
| 20260509064118 | 66 | 0.0 | 0.0 | 0.00 | 0.77 | 0.00 | 95 | 1012.2 | |
| 20260509063142 | 66 | 0.0 | 1.0 | 0.00 | 0.77 | 0.00 | 95 | 1012.1 | |
| 20260509062118 | 66 | 135 | 1.0 | 1.0 | 0.00 | 0.77 | 0.00 | 95 | 1011.9 |
| 20260509061142 | 67 | 135 | 1.0 | 1.0 | 0.00 | 0.77 | 0.00 | 95 | 1011.6 |
| 20260509060138 | 67 | 0.0 | 0.0 | 0.00 | 0.77 | 0.00 | 96 | 1011.9 | |
| 20260509054607 | 67 | 0.0 | 0.0 | 0.00 | 0.77 | 0.00 | 95 | 1012.7 | |
| 20260509053632 | 67 | 0.0 | 0.0 | 0.00 | 0.77 | 0.00 | 95 | 1013.2 | |
| 20260509052608 | 67 | 0.0 | 0.0 | 0.00 | 0.77 | 0.00 | 95 | 1013.1 | |
| 20260509051632 | 67 | 0.0 | 1.0 | 0.00 | 0.77 | 0.00 | 95 | 1013.1 | |
| 20260509050628 | 67 | 45 | 1.0 | 1.0 | 0.00 | 0.77 | 0.00 | 95 | 1013.6 |